User: anonymous   Login
Location: Caltech
(34.1382°N, 118.1253°W)
Time: 13:55:03
(UTC-07:00)
Language:

DELTA 2 R/B (1) - Orbit

View from above orbital plane
View from above orbital plane
View from above satellite
View from above satellite

Ground track
Ground track

The orbit data is extracted from the following two-line orbital elements,

1 27665U 03005C   18112.94460941 +.00000022 +00000-0 +42277-4 0  9994
2 27665 039.5767 333.0029 0007642 131.8158 355.1129 14.28473452795143
Epoch (UTC): 22 April 2018 22:40:14
Eccentricity: 0.0007642
inclination: 39.5767°
perigee height: 791 km
apogee height: 802 km
right ascension of ascending node: 333.0029°
argument of perigee: 131.8158°
revolutions per day: 14.28473452
mean anomaly at epoch: 355.1129°
orbit number at epoch: 79514

The dashed part of the orbit path shows where the satellite is in the earth's shadow,  

DLR